Home   Weather   Copenhagen   Past weeks

Flag for Denmark Past Weather in Copenhagen, Denmark — Yesterday and Last 2 Weeks

Now
61 °F

Sunny.


Feels Like: 61 °F
Forecast: 59 / 64 °F
Wind: 1 mph from North

Location: Koebenhavn-Kastrup Airport

Current Time: Sep 27, 2016 at 10:56:07 AM

Latest Report: Sep 27, 2016 at 10:20 AM


Visibility: 10 mi

Pressure: 30.27 "Hg

Humidity: 88%

Dew Point: 57 °F

Location of CopenhagenLocation

Past Weather in Copenhagen — Graph

°F

Copenhagen Temperature Yesterday

Maximum temperature yesterday: 66 °F (at 2:50 PM)
Minimum temperature yesterday: 61 °F (at 12:20 AM)
Average temperature yesterday: 62 °F

High & Low Weather Summary for the Past Weeks

 TemperatureHumidityPressure
High77 °F (Sep 13, 1:20 PM)100% (Sep 27, 6:20 AM)30.27 "Hg (Sep 27, 6:20 AM)
Low50 °F (Sep 24, 3:20 AM)41% (Sep 14, 4:50 PM)29.98 "Hg (Sep 16, 6:20 AM)
Average62 °F74%30.14 "Hg
* Reported Sep 12 9:20 AM — Sep 27 9:20 AM, Copenhagen, Weather by CustomWeather, © 2016

Note: Actual official high and low records may vary slightly from our data, if they occured in-between our weather recording intervals... More about our weather records

Advertising

Copenhagen Weather History for the Previous 24 Hours

Scroll right to see more
 ConditionsComfort  
Time TempWeatherWind HumidityBarometerVisibility
9:20 AM
Tue, Sep 27
59 °FSunny.1 mph94%30.27 "Hg10 mi
8:50 AM59 °FSunny.3 mph94%30.27 "Hg10 mi
8:20 AM59 °FSunny.1 mph88%30.27 "Hg10 mi
7:50 AM59 °FSunny.5 mph88%30.27 "Hg10 mi
7:20 AM57 °FSunny.2 mph94%30.27 "Hg10 mi
6:51 AM57 °FClear.5 mph94%30.27 "Hg10 mi
6:20 AM55 °FFog.7 mph100%30.24 "Hg2 mi
5:50 AM54 °FClear.6 mph94%30.24 "Hg3 mi
5:20 AM55 °FClear.3 mph94%30.24 "Hg10 mi
4:50 AM55 °FClear.2 mph94%30.24 "Hg10 mi
4:20 AM55 °FClear.3 mph94%30.24 "Hg10 mi
3:50 AM55 °FClear.5 mph94%30.24 "Hg10 mi
3:20 AM57 °FClear.6 mph94%30.24 "Hg10 mi
2:50 AM59 °FClear.6 mph88%30.24 "Hg10 mi
2:20 AM59 °FClear.6 mph82%30.24 "Hg10 mi
1:50 AM59 °FClear.5 mph82%30.24 "Hg10 mi
1:20 AM59 °FClear.6 mph82%30.24 "Hg10 mi
12:50 AM61 °FClear.7 mph72%30.24 "Hg10 mi
12:20 AM61 °FClear.6 mph77%30.24 "Hg10 mi
11:20 PM
Mon, Sep 26
61 °FClear.8 mph83%30.24 "Hg10 mi
10:50 PM61 °FClear.10 mph83%30.24 "Hg10 mi
10:20 PM61 °FClear.9 mph83%30.24 "Hg10 mi
9:50 PM61 °FClear.9 mph83%30.24 "Hg10 mi
9:20 PM61 °FClear.10 mph83%30.24 "Hg10 mi
8:50 PM61 °FClear.9 mph83%30.24 "Hg10 mi
8:20 PM63 °FClear.9 mph77%30.24 "Hg10 mi
7:50 PM63 °FClear.9 mph83%30.21 "Hg10 mi
7:20 PM63 °FClear.7 mph77%30.21 "Hg10 mi
6:50 PM63 °FSunny.7 mph77%30.21 "Hg10 mi
6:20 PM63 °FSunny.8 mph77%30.21 "Hg10 mi
5:50 PM64 °FSunny.8 mph73%30.21 "Hg10 mi
5:20 PM64 °FSunny.9 mph73%30.21 "Hg10 mi
4:50 PM64 °FSunny.8 mph68%30.21 "Hg10 mi
4:20 PM64 °FSunny.9 mph64%30.21 "Hg10 mi
3:50 PM64 °FSunny.9 mph68%30.21 "Hg10 mi
3:20 PM64 °FSunny.10 mph68%30.21 "Hg10 mi
2:50 PM66 °FSunny.10 mph68%30.18 "Hg10 mi
2:20 PM64 °FSunny.9 mph73%30.21 "Hg10 mi
1:50 PM64 °FSunny.8 mph73%30.18 "Hg10 mi
1:20 PM64 °FPassing clouds.8 mph73%30.21 "HgN/A
12:50 PM64 °FSunny.9 mph73%30.21 "Hg10 mi
12:20 PM64 °FSunny.12 mph73%30.18 "Hg10 mi
11:50 AM64 °FSunny.12 mph73%30.18 "Hg10 mi
11:20 AM64 °FSunny.14 mph73%30.18 "Hg10 mi
10:50 AM64 °FSunny.13 mph73%30.18 "Hg10 mi
10:20 AM64 °FSunny.14 mph73%30.18 "Hg10 mi
Weather by CustomWeather, © 2016

See weather overviewHow to use our weather pages